DW8507 Weather Reports


time (UTC)temp
C
wind
direction
speed
KPH
gust
KPH
rain 1hr
cm
rain 24hr
cm
rain mn
cm
humidity
%
barometer
mb
20260510183459 12 0 0.0 0.0 0.00 0.00 0.00 56 1009.2
20260510182558 12 0 0.0 0.0 0.00 0.00 0.00 56 1009.1
20260510181659 12 0 0.0 0.0 0.00 0.00 0.00 54 1009.2
20260510180757 12 0 0.0 0.0 0.00 0.00 0.00 55 1009.3
20260510175857 12 0 0.0 0.0 0.00 0.00 0.00 54 1009.3
20260510174957 12 0 0.0 0.0 0.00 0.00 0.00 54 1009.3
20260510174058 12 0 0.0 0.0 0.00 0.00 0.00 55 1009.4
20260510173157 12 0 0.0 1.6 0.00 0.00 0.00 54 1009.5
20260510172510 12 0 0.0 1.6 0.00 0.00 0.00 54 1009.5
20260510171612 13 0 0.0 0.0 0.00 0.00 0.00 55 1009.3
20260510170457 13 0 0.0 0.0 0.00 0.00 0.00 55 1009.6
20260510165812 13 0 0.0 0.0 0.00 0.00 0.00 55 1009.9
20260510164657 13 0 0.0 0.0 0.00 0.00 0.00 55 1009.7
20260510164012 13 0 0.0 0.0 0.00 0.00 0.00 54 1009.9
20260510163109 13 0 0.0 0.0 0.00 0.00 0.00 55 1009.8
20260510161959 13 0 0.0 0.0 0.00 0.00 0.00 56 1009.9
20260510161057 13 0 0.0 0.0 0.00 0.00 0.00 56 1010.0
20260510160159 13 0 0.0 0.0 0.00 0.00 0.00 56 1010.3
20260510155259 13 0 0.0 0.0 0.00 0.00 0.00 57 1010.2
20260510154358 13 0 0.0 0.0 0.00 0.00 0.00 58 1010.4
20260510153458 13 0 0.0 0.0 0.00 0.00 0.00 59 1010.6
20260510152558 12 0 0.0 0.0 0.00 0.00 0.00 59 1010.6
20260510151659 12 0 0.0 0.0 0.00 0.00 0.00 58 1010.4
20260510150758 13 0 0.0 0.0 0.00 0.00 0.00 60 1010.7
20260510145857 13 0 0.0 0.0 0.00 0.00 0.00 60 1010.9
20260510145000 13 0 0.0 0.0 0.00 0.00 0.00 60 1011.1
20260510144057 13 0 0.0 0.0 0.00 0.00 0.00 61 1011.1
20260510143159 13 0 0.0 0.0 0.00 0.00 0.00 61 1011.0
20260510142257 12 0 0.0 0.0 0.00 0.00 0.00 61 1011.2
20260510141357 12 0 0.0 0.0 0.00 0.00 0.00 62 1011.3
20260510140457 12 0 0.0 0.0 0.00 0.00 0.00 62 1011.2
20260510135557 12 0 0.0 0.0 0.00 0.00 0.00 63 1011.4
20260510134911 12 0 0.0 0.0 0.00 0.00 0.00 63 1011.4
20260510133758 12 0 0.0 0.0 0.00 0.00 0.00 63 1011.3
20260510132902 12 0 0.0 0.0 0.00 0.00 0.00 63 1011.6
20260510131957 12 0 0.0 0.0 0.00 0.00 0.00 63 1011.4
20260510131059 12 0 0.0 0.0 0.00 0.00 0.00 63 1011.5
20260510130158 12 0 0.0 0.0 0.00 0.00 0.00 63 1011.5
20260510125258 12 0 0.0 0.0 0.00 0.00 0.00 63 1011.7
20260510124357 12 0 0.0 0.0 0.00 0.00 0.00 63 1011.8
20260510123459 12 0 0.0 0.0 0.00 0.00 0.00 64 1011.7
20260510122812 12 0 0.0 0.0 0.00 0.00 0.00 64 1011.9
20260510121658 12 0 0.0 0.0 0.00 0.00 0.00 65 1011.9
20260510120757 12 0 0.0 0.0 0.00 0.00 0.00 66 1012.2
20260510115858 12 0 0.0 0.0 0.00 0.00 0.00 69 1012.0
20260510114958 12 0 0.0 0.0 0.00 0.00 0.00 71 1012.1
20260510114057 12 0 0.0 0.0 0.00 0.00 0.00 71 1012.3
20260510113159 12 0 0.0 0.0 0.00 0.00 0.00 71 1012.2
20260510112508 12 0 0.0 0.0 0.00 0.00 0.00 72 1012.5
20260510111358 12 0 0.0 0.0 0.00 0.00 0.00 72 1012.4
20260510110458 12 0 0.0 0.0 0.00 0.00 0.00 72 1012.5
20260510105557 12 0 0.0 3.2 0.00 0.00 0.00 72 1012.6
20260510104657 12 0 0.0 0.0 0.00 0.00 0.00 72 1012.5
20260510103759 12 0 0.0 0.0 0.00 0.00 0.00 72 1012.8
20260510102858 12 0 0.0 0.0 0.00 0.00 0.00 70 1012.7
20260510101958 12 0 0.0 0.0 0.00 0.00 0.00 70 1012.7
20260510101058 12 0 0.0 0.0 0.00 0.00 0.00 72 1012.6
20260510100158 12 0 0.0 0.0 0.00 0.00 0.00 71 1012.7
20260510095257 12 0 0.0 0.0 0.00 0.00 0.00 73 1012.9
20260510094400 12 0 0.0 0.0 0.00 0.00 0.00 74 1012.7
20260510093458 12 0 0.0 0.0 0.00 0.00 0.00 73 1012.8
20260510092557 12 0 0.0 0.0 0.00 0.00 0.00 73 1013.1
20260510091657 12 0 0.0 0.0 0.00 0.00 0.00 73 1012.9
20260510090759 12 0 0.0 0.0 0.00 0.00 0.00 71 1012.9
20260510085858 12 0 0.0 1.6 0.00 0.00 0.00 71 1012.9
20260510085208 12 0 0.0 0.0 0.00 0.00 0.00 70 1012.9
20260510084057 12 0 0.0 0.0 0.00 0.00 0.00 72 1013.2
20260510083158 12 0 0.0 0.0 0.00 0.00 0.00 73 1013.3
20260510082258 12 0 0.0 0.0 0.00 0.00 0.00 74 1013.2
20260510081357 11 0 0.0 0.0 0.00 0.00 0.00 74 1013.1
20260510080457 11 0 0.0 0.0 0.00 0.00 0.00 75 1013.4
20260510075559 11 0 0.0 0.0 0.00 0.00 0.00 74 1013.4
20260510074657 11 0 0.0 0.0 0.00 0.00 0.00 74 1013.3
20260510073757 11 0 0.0 1.6 0.00 0.00 0.00 76 1013.2
20260510072859 11 0 0.0 0.0 0.00 0.00 0.00 77 1013.1
20260510071957 11 0 0.0 0.0 0.00 0.00 0.00 79 1013.1
20260510071057 11 0 0.0 0.0 0.00 0.00 0.00 80 1013.0
20260510070157 11 0 0.0 0.0 0.00 0.00 0.00 81 1013.0
20260510065257 10 0 0.0 0.0 0.00 0.00 0.00 82 1012.9
20260510064611 10 0 0.0 0.0 0.00 0.00 0.00 82 1012.9
20260510063708 10 0 0.0 0.0 0.00 0.00 0.00 83 1013.0
20260510062559 10 0 0.0 0.0 0.00 0.00 0.00 84 1012.8
20260510061659 10 0 0.0 0.0 0.00 0.00 0.00 84 1012.7
20260510060757 10 0 0.0 0.0 0.00 0.00 0.00 85 1012.7
20260510055859 10 0 0.0 0.0 0.00 0.00 0.00 85 1012.7
20260510054959 10 0 0.0 0.0 0.00 0.00 0.00 85 1012.7
20260510054057 10 0 0.0 0.0 0.00 0.00 0.00 85 1012.6
20260510053410 10 0 0.0 0.0 0.00 0.00 0.00 85 1012.7
20260510052257 10 0 0.0 0.0 0.00 0.00 0.00 85 1012.9
20260510051610 10 0 0.0 0.0 0.00 0.00 0.00 85 1012.6
20260510050459 10 0 0.0 0.0 0.00 0.00 0.00 85 1012.7
20260510045809 10 0 0.0 0.0 0.00 0.00 0.00 85 1012.7
20260510044659 10 0 0.0 0.0 0.00 0.00 0.00 85 1012.9
20260510043759 10 0 0.0 0.0 0.00 0.00 0.00 85 1012.5
20260510042857 10 0 0.0 0.0 0.00 0.00 0.00 85 1012.5
20260510042208 10 0 0.0 0.0 0.00 0.00 0.00 85 1012.6
20260510041057 10 0 0.0 1.6 0.00 0.00 0.00 85 1012.8
20260510040158 10 0 0.0 0.0 0.00 0.00 0.00 85 1013.0
20260510035257 10 0 0.0 0.0 0.00 0.00 0.00 85 1012.8
20260510034359 10 0 0.0 0.0 0.00 0.00 0.00 85 1013.0
20260510033457 10 0 0.0 0.0 0.00 0.00 0.00 85 1013.1
20260510032557 10 0 0.0 0.0 0.00 0.00 0.00 86 1013.2
20260510031658 10 0 0.0 0.0 0.00 0.00 0.00 86 1013.0
20260510030758 10 0 0.0 0.0 0.00 0.00 0.00 86 1013.1
20260510025857 10 0 0.0 0.0 0.00 0.00 0.00 86 1012.8
20260510024957 10 0 0.0 0.0 0.00 0.00 0.00 86 1013.0
20260510024057 10 0 0.0 0.0 0.00 0.00 0.00 85 1013.0
20260510023157 9 0 0.0 0.0 0.00 0.00 0.00 84 1013.0
20260510022258 9 0 0.0 0.0 0.00 0.00 0.00 84 1013.2
20260510021358 9 0 0.0 0.0 0.00 0.00 0.00 84 1013.3
20260510020457 9 0 0.0 0.0 0.00 0.00 0.00 83 1013.3
20260510015811 9 0 0.0 0.0 0.00 0.00 0.00 83 1013.1
20260510014703 10 0 0.0 0.0 0.00 0.00 0.00 82 1013.4
20260510014011 10 0 0.0 0.0 0.00 0.00 0.00 82 1013.2
20260510012859 10 0 0.0 0.0 0.00 0.00 0.00 82 1013.4
20260510012211 10 0 0.0 0.0 0.00 0.00 0.00 82 1013.4
20260510011057 10 0 0.0 0.0 0.00 0.00 0.00 81 1013.2
20260510010157 10 0 0.0 0.0 0.00 0.00 0.00 81 1013.2
20260510005257 10 0 0.0 0.0 0.00 0.00 0.00 80 1013.0
20260510004357 10 0 0.0 0.0 0.00 0.00 0.00 80 1013.1
20260510003457 10 0 0.0 0.0 0.00 0.00 0.00 78 1013.2
20260510002558 10 0 0.0 0.0 0.00 0.00 0.00 76 1012.9
20260510001657 10 0 0.0 0.0 0.00 0.00 0.00 75 1012.9
20260510000758 10 0 0.0 0.0 0.00 0.00 0.00 73 1013.1
20260509235857 11 0 0.0 0.0 0.00 0.00 0.00 71 1013.2
20260509234957 11 0 0.0 0.0 0.00 0.00 0.00 70 1012.9
20260509234057 11 0 0.0 0.0 0.00 0.00 0.00 68 1013.2
20260509233408 11 0 0.0 0.0 0.00 0.00 0.00 67 1013.1
20260509232259 11 0 0.0 0.0 0.00 0.00 0.00 63 1012.9
20260509231608 12 0 0.0 0.0 0.00 0.00 0.00 62 1013.1
20260509230457 12 0 0.0 0.0 0.00 0.00 0.00 60 1012.6
20260509225557 12 0 0.0 0.0 0.00 0.00 0.00 57 1012.9
20260509224910 12 0 0.0 0.0 0.00 0.00 0.00 57 1012.7
20260509223758 12 0 0.0 0.0 0.00 0.00 0.00 60 1012.9
20260509222858 12 0 0.0 0.0 0.00 0.00 0.00 61 1012.8
20260509221959 13 0 0.0 0.0 0.00 0.00 0.00 61 1012.9
20260509221059 13 0 0.0 0.0 0.00 0.00 0.00 60 1012.9
20260509220157 13 0 0.0 0.0 0.00 0.00 0.00 60 1012.6
20260509215257 13 0 0.0 0.0 0.00 0.00 0.00 61 1012.4
20260509214357 14 0 0.0 0.0 0.00 0.00 0.00 60 1012.5
20260509213457 14 0 0.0 0.0 0.00 0.00 0.00 58 1012.2
20260509212557 15 0 0.0 0.0 0.00 0.00 0.00 58 1012.1
20260509211659 15 0 0.0 0.0 0.00 0.00 0.00 58 1012.2
20260509210759 15 0 0.0 0.0 0.00 0.00 0.00 57 1012.0
20260509205857 15 0 0.0 0.0 0.00 0.00 0.00 56 1011.8
20260509204959 15 0 0.0 0.0 0.00 0.00 0.00 56 1011.9
20260509204059 15 0 0.0 0.0 0.00 0.00 0.00 54 1011.7
20260509203159 16 0 0.0 0.0 0.00 0.00 0.00 54 1011.4
20260509202508 16 0 0.0 0.0 0.00 0.00 0.00 53 1011.6
20260509201358 16 0 0.0 0.0 0.00 0.00 0.00 52 1011.4
20260509200458 16 0 0.0 0.0 0.00 0.00 0.00 51 1011.3
20260509195810 17 0 0.0 0.0 0.00 0.00 0.00 51 1011.2
20260509194657 17 0 0.0 0.0 0.00 0.00 0.00 50 1011.2
20260509193758 17 0 0.0 0.0 0.00 0.00 0.00 46 1011.2
20260509192857 17 0 0.0 0.0 0.00 0.00 0.00 45 1010.9
20260509192209 18 0 0.0 0.0 0.00 0.00 0.00 44 1010.8
20260509191057 18 0 0.0 0.0 0.00 0.00 0.00 43 1010.8
20260509190159 18 0 0.0 0.0 0.00 0.00 0.00 42 1010.6
20260509185511 18 0 0.0 0.0 0.00 0.00 0.00 42 1010.8
20260509184357 19 0 0.0 0.0 0.00 0.00 0.00 42 1010.5